CZ-3B DEB, 40169

Orbit data source: Space-Track

CZ-3B DEB, 40169 is space debris in HEO originally from a launch on Sat, 04 Sep 2010 UTC launched from the Xichang Space Center, China (XSC). Debris objects in space refer to the collection of defunct objects orbiting the Earth. Examples of debris include non-operational satellites, rocket bodies, and fragments generated from explosions, collisions, or faulty payload assembly.

Loading next visibility...
Identifier
40169, 2010-042W
Orbit
HEO
Country
Flag of CNCN / PRC
Related business
Manufacturer
CALT
Mission
Spacecraft
Bus & Motor
Unknown
Mass
Unknown
Launch date (UTC)
2010-09-04 (15 years ago)
Launch vehicle
Unknown
Launch site
Xichang Space Center, China (XSC)
Object type
Payload
Rocket body
Debris
Shape & HBR
Unknown
Radar Cross Section
Medium (>0.1 m² and <1 m²)

Expand to show TLE details & history
Last TLE update: 1 week ago

TLE from 1 week ago
0 CZ-3B DEB
1 40169U 10042W   25248.81728637  .00000132  00000-0  00000-0 0  9996
2 40169  26.9999 305.9876 7192834 281.1500  12.1061  1.93993280 92270
Epoch: 2025-09-05T19:36Z
TLE epoch observation values (Epoch: 2025-09-05T19:36:53.542Z)
Latitude
-0.02777°
Longitude
26.67232°
Altitude
5,189.94 km
Speed
7.364 km/s
True Right ascension
20h 24m 13s
True Declination
0° 01' 40"
Sunlit
Object was in daylight at epoch
Visualization orbit readout
Latitude
Unknown
Longitude
Unknown
Altitude
Unknown
Speed
Unknown
Apparent Right ascension
Unknown
Apparent Declination
Unknown
Sunlit
N/A
Visualization observer readout
Local Sidereal Time
08:00:30
Azimuth
Unknown
Elevation
Unknown
Doppler factor
Unknown
Orbital elements
Apogee altitude
40,317.742 km
Perigee altitude
1,246.149 km
Semi-major axis
27,160.083 km
Eccentricity
0.71928
Inclination
26.9999°
RAAN
305.9876°
Arg. of periapsis
281.15°
True anomaly
78.89918°
Mean anomaly
12.1061°
Eccentric anomaly
36.7835°
Mean motion
0.48489 °/min
Orbital period
742.43 mins
BSTAR
0
Loading maneuver chart data...
Computing Atmospheric mass density...
Loading historical data...
Loading historical data...
Loading historical data...
Loading historical data...
Loading historical data...
Loading historical data...
Loading historical data...

Documentation

Showing up to 5 results
|